"Messstellennummer";"Messstellenbezeichnung";"Datum";"Wasserstand in cm"
2718040300;Altenahr  ;13.07.2021 00:00;67
2718040300;Altenahr  ;13.07.2021 00:15;67
2718040300;Altenahr  ;13.07.2021 00:30;67
2718040300;Altenahr  ;13.07.2021 00:45;67
2718040300;Altenahr  ;13.07.2021 01:00;67
2718040300;Altenahr  ;13.07.2021 01:15;67
2718040300;Altenahr  ;13.07.2021 01:30;67
2718040300;Altenahr  ;13.07.2021 01:45;67
2718040300;Altenahr  ;13.07.2021 02:00;67
2718040300;Altenahr  ;13.07.2021 02:15;67
2718040300;Altenahr  ;13.07.2021 02:30;67
2718040300;Altenahr  ;13.07.2021 02:45;68
2718040300;Altenahr  ;13.07.2021 03:00;69
2718040300;Altenahr  ;13.07.2021 03:15;69
2718040300;Altenahr  ;13.07.2021 03:30;68
2718040300;Altenahr  ;13.07.2021 03:45;69
2718040300;Altenahr  ;13.07.2021 04:00;69
2718040300;Altenahr  ;13.07.2021 04:15;69
2718040300;Altenahr  ;13.07.2021 04:30;69
2718040300;Altenahr  ;13.07.2021 04:45;70
2718040300;Altenahr  ;13.07.2021 05:00;70
2718040300;Altenahr  ;13.07.2021 05:15;71
2718040300;Altenahr  ;13.07.2021 05:30;71
2718040300;Altenahr  ;13.07.2021 05:45;72
2718040300;Altenahr  ;13.07.2021 06:00;72
2718040300;Altenahr  ;13.07.2021 06:15;72
2718040300;Altenahr  ;13.07.2021 06:30;72
2718040300;Altenahr  ;13.07.2021 06:45;72
2718040300;Altenahr  ;13.07.2021 07:00;72
2718040300;Altenahr  ;13.07.2021 07:15;72
2718040300;Altenahr  ;13.07.2021 07:30;72
2718040300;Altenahr  ;13.07.2021 07:45;72
2718040300;Altenahr  ;13.07.2021 08:00;73
2718040300;Altenahr  ;13.07.2021 08:15;73
2718040300;Altenahr  ;13.07.2021 08:30;73
2718040300;Altenahr  ;13.07.2021 08:45;72
2718040300;Altenahr  ;13.07.2021 09:00;72
2718040300;Altenahr  ;13.07.2021 09:15;72
2718040300;Altenahr  ;13.07.2021 09:30;72
2718040300;Altenahr  ;13.07.2021 09:45;73
2718040300;Altenahr  ;13.07.2021 10:00;73
2718040300;Altenahr  ;13.07.2021 10:15;73
2718040300;Altenahr  ;13.07.2021 10:30;74
2718040300;Altenahr  ;13.07.2021 10:45;74
2718040300;Altenahr  ;13.07.2021 11:00;74
2718040300;Altenahr  ;13.07.2021 11:15;74
2718040300;Altenahr  ;13.07.2021 11:30;75
2718040300;Altenahr  ;13.07.2021 11:45;75
2718040300;Altenahr  ;13.07.2021 12:00;76
2718040300;Altenahr  ;13.07.2021 12:15;76
2718040300;Altenahr  ;13.07.2021 12:30;76
2718040300;Altenahr  ;13.07.2021 12:45;76
2718040300;Altenahr  ;13.07.2021 13:00;76
2718040300;Altenahr  ;13.07.2021 13:15;76
2718040300;Altenahr  ;13.07.2021 13:30;76
2718040300;Altenahr  ;13.07.2021 13:45;76
2718040300;Altenahr  ;13.07.2021 14:00;77
2718040300;Altenahr  ;13.07.2021 14:15;77
2718040300;Altenahr  ;13.07.2021 14:30;77
2718040300;Altenahr  ;13.07.2021 14:45;77
2718040300;Altenahr  ;13.07.2021 15:00;77
2718040300;Altenahr  ;13.07.2021 15:15;77
2718040300;Altenahr  ;13.07.2021 15:30;78
2718040300;Altenahr  ;13.07.2021 15:45;78
2718040300;Altenahr  ;13.07.2021 16:00;78
2718040300;Altenahr  ;13.07.2021 16:15;78
2718040300;Altenahr  ;13.07.2021 16:30;78
2718040300;Altenahr  ;13.07.2021 16:45;78
2718040300;Altenahr  ;13.07.2021 17:00;78
2718040300;Altenahr  ;13.07.2021 17:15;78
2718040300;Altenahr  ;13.07.2021 17:30;78
2718040300;Altenahr  ;13.07.2021 17:45;78
2718040300;Altenahr  ;13.07.2021 18:00;78
2718040300;Altenahr  ;13.07.2021 18:15;78
2718040300;Altenahr  ;13.07.2021 18:30;78
2718040300;Altenahr  ;13.07.2021 18:45;78
2718040300;Altenahr  ;13.07.2021 19:00;78
2718040300;Altenahr  ;13.07.2021 19:15;77
2718040300;Altenahr  ;13.07.2021 19:30;77
2718040300;Altenahr  ;13.07.2021 19:45;77
2718040300;Altenahr  ;13.07.2021 20:00;78
2718040300;Altenahr  ;13.07.2021 20:15;80
2718040300;Altenahr  ;13.07.2021 20:30;81
2718040300;Altenahr  ;13.07.2021 20:45;81
2718040300;Altenahr  ;13.07.2021 21:00;80
2718040300;Altenahr  ;13.07.2021 21:15;80
2718040300;Altenahr  ;13.07.2021 21:30;82
2718040300;Altenahr  ;13.07.2021 21:45;83
2718040300;Altenahr  ;13.07.2021 22:00;83
2718040300;Altenahr  ;13.07.2021 22:15;84
2718040300;Altenahr  ;13.07.2021 22:30;85
2718040300;Altenahr  ;13.07.2021 22:45;86
2718040300;Altenahr  ;13.07.2021 23:00;87
2718040300;Altenahr  ;13.07.2021 23:15;87
2718040300;Altenahr  ;13.07.2021 23:30;87
2718040300;Altenahr  ;13.07.2021 23:45;87
2718040300;Altenahr  ;14.07.2021 00:00;87
2718040300;Altenahr  ;14.07.2021 00:15;88
2718040300;Altenahr  ;14.07.2021 00:30;88
2718040300;Altenahr  ;14.07.2021 00:45;88
2718040300;Altenahr  ;14.07.2021 01:00;89
2718040300;Altenahr  ;14.07.2021 01:15;89
2718040300;Altenahr  ;14.07.2021 01:30;89
2718040300;Altenahr  ;14.07.2021 01:45;89
2718040300;Altenahr  ;14.07.2021 02:00;89
2718040300;Altenahr  ;14.07.2021 02:15;89
2718040300;Altenahr  ;14.07.2021 02:30;88
2718040300;Altenahr  ;14.07.2021 02:45;89
2718040300;Altenahr  ;14.07.2021 03:00;89
2718040300;Altenahr  ;14.07.2021 03:15;89
2718040300;Altenahr  ;14.07.2021 03:30;89
2718040300;Altenahr  ;14.07.2021 03:45;89
2718040300;Altenahr  ;14.07.2021 04:00;89
2718040300;Altenahr  ;14.07.2021 04:15;90
2718040300;Altenahr  ;14.07.2021 04:30;90
2718040300;Altenahr  ;14.07.2021 04:45;92
2718040300;Altenahr  ;14.07.2021 05:00;94
2718040300;Altenahr  ;14.07.2021 05:15;95
2718040300;Altenahr  ;14.07.2021 05:30;97
2718040300;Altenahr  ;14.07.2021 05:45;98
2718040300;Altenahr  ;14.07.2021 06:00;101
2718040300;Altenahr  ;14.07.2021 06:15;103
2718040300;Altenahr  ;14.07.2021 06:30;106
2718040300;Altenahr  ;14.07.2021 06:45;109
2718040300;Altenahr  ;14.07.2021 07:00;111
2718040300;Altenahr  ;14.07.2021 07:15;112
2718040300;Altenahr  ;14.07.2021 07:30;113
2718040300;Altenahr  ;14.07.2021 07:45;114
2718040300;Altenahr  ;14.07.2021 08:00;114
2718040300;Altenahr  ;14.07.2021 08:15;115
2718040300;Altenahr  ;14.07.2021 08:30;114
2718040300;Altenahr  ;14.07.2021 08:45;114
2718040300;Altenahr  ;14.07.2021 09:00;114
2718040300;Altenahr  ;14.07.2021 09:15;114
2718040300;Altenahr  ;14.07.2021 09:30;114
2718040300;Altenahr  ;14.07.2021 09:45;113
2718040300;Altenahr  ;14.07.2021 10:00;113
2718040300;Altenahr  ;14.07.2021 10:15;113
2718040300;Altenahr  ;14.07.2021 10:30;113
2718040300;Altenahr  ;14.07.2021 10:45;113
2718040300;Altenahr  ;14.07.2021 11:00;113
2718040300;Altenahr  ;14.07.2021 11:15;114
2718040300;Altenahr  ;14.07.2021 11:30;116
2718040300;Altenahr  ;14.07.2021 11:45;116
2718040300;Altenahr  ;14.07.2021 12:00;117
2718040300;Altenahr  ;14.07.2021 12:15;120
2718040300;Altenahr  ;14.07.2021 12:30;123
2718040300;Altenahr  ;14.07.2021 12:45;126
2718040300;Altenahr  ;14.07.2021 13:00;130
2718040300;Altenahr  ;14.07.2021 13:15;134
2718040300;Altenahr  ;14.07.2021 13:30;138
2718040300;Altenahr  ;14.07.2021 13:45;143
2718040300;Altenahr  ;14.07.2021 14:00;149
2718040300;Altenahr  ;14.07.2021 14:15;156
2718040300;Altenahr  ;14.07.2021 14:30;165
2718040300;Altenahr  ;14.07.2021 14:45;174
2718040300;Altenahr  ;14.07.2021 15:00;182
2718040300;Altenahr  ;14.07.2021 15:15;191
2718040300;Altenahr  ;14.07.2021 15:30;200
2718040300;Altenahr  ;14.07.2021 15:45;209
2718040300;Altenahr  ;14.07.2021 16:00;218
2718040300;Altenahr  ;14.07.2021 16:15;226
2718040300;Altenahr  ;14.07.2021 16:30;237
2718040300;Altenahr  ;14.07.2021 16:45;249
2718040300;Altenahr  ;14.07.2021 17:00;262
2718040300;Altenahr  ;14.07.2021 17:15;278
2718040300;Altenahr  ;14.07.2021 17:30;293
2718040300;Altenahr  ;14.07.2021 17:45;315
2718040300;Altenahr  ;14.07.2021 18:00;335
2718040300;Altenahr  ;14.07.2021 18:15;363
2718040300;Altenahr  ;14.07.2021 18:30;391
2718040300;Altenahr  ;14.07.2021 18:45;429
2718040300;Altenahr  ;14.07.2021 19:00;465
2718040300;Altenahr  ;14.07.2021 19:15;505
2718040300;Altenahr  ;14.07.2021 19:30;-
2718040300;Altenahr  ;14.07.2021 19:45;-
2718040300;Altenahr  ;14.07.2021 20:00;-
2718040300;Altenahr  ;14.07.2021 20:15;-
2718040300;Altenahr  ;14.07.2021 20:30;-
2718040300;Altenahr  ;14.07.2021 20:45;-
2718040300;Altenahr  ;14.07.2021 21:00;-
2718040300;Altenahr  ;14.07.2021 21:15;-
2718040300;Altenahr  ;14.07.2021 21:30;-
2718040300;Altenahr  ;14.07.2021 21:45;-
2718040300;Altenahr  ;14.07.2021 22:00;-
2718040300;Altenahr  ;14.07.2021 22:15;-
2718040300;Altenahr  ;14.07.2021 22:30;-
2718040300;Altenahr  ;14.07.2021 22:45;-
2718040300;Altenahr  ;14.07.2021 23:00;-
2718040300;Altenahr  ;14.07.2021 23:15;-
2718040300;Altenahr  ;14.07.2021 23:30;-
2718040300;Altenahr  ;14.07.2021 23:45;-
2718040300;Altenahr  ;23.07.2021 00:00;-
2718040300;Altenahr  ;23.07.2021 00:15;-
2718040300;Altenahr  ;23.07.2021 00:30;-
2718040300;Altenahr  ;23.07.2021 00:45;-
2718040300;Altenahr  ;23.07.2021 01:00;-
2718040300;Altenahr  ;23.07.2021 01:15;-
2718040300;Altenahr  ;23.07.2021 01:30;-
2718040300;Altenahr  ;23.07.2021 01:45;-
2718040300;Altenahr  ;23.07.2021 02:00;-
2718040300;Altenahr  ;23.07.2021 02:15;-
2718040300;Altenahr  ;23.07.2021 02:30;-
2718040300;Altenahr  ;23.07.2021 02:45;-
2718040300;Altenahr  ;23.07.2021 03:00;-
2718040300;Altenahr  ;23.07.2021 03:15;-
2718040300;Altenahr  ;23.07.2021 03:30;-
2718040300;Altenahr  ;23.07.2021 03:45;-
2718040300;Altenahr  ;23.07.2021 04:00;-
2718040300;Altenahr  ;23.07.2021 04:15;-
2718040300;Altenahr  ;23.07.2021 04:30;-
2718040300;Altenahr  ;23.07.2021 04:45;-
2718040300;Altenahr  ;23.07.2021 05:00;-
2718040300;Altenahr  ;23.07.2021 05:15;-
2718040300;Altenahr  ;23.07.2021 05:30;-
2718040300;Altenahr  ;23.07.2021 05:45;-
2718040300;Altenahr  ;23.07.2021 06:00;-
2718040300;Altenahr  ;23.07.2021 06:15;-
2718040300;Altenahr  ;23.07.2021 06:30;-
2718040300;Altenahr  ;23.07.2021 06:45;-
2718040300;Altenahr  ;23.07.2021 07:00;-
2718040300;Altenahr  ;23.07.2021 07:15;-
2718040300;Altenahr  ;23.07.2021 07:30;-
2718040300;Altenahr  ;23.07.2021 07:45;-
2718040300;Altenahr  ;23.07.2021 08:00;-
2718040300;Altenahr  ;23.07.2021 08:15;-
2718040300;Altenahr  ;23.07.2021 08:30;-
2718040300;Altenahr  ;23.07.2021 08:45;-
2718040300;Altenahr  ;23.07.2021 09:00;-
2718040300;Altenahr  ;23.07.2021 09:15;-
2718040300;Altenahr  ;23.07.2021 09:30;-
2718040300;Altenahr  ;23.07.2021 09:45;115
2718040300;Altenahr  ;23.07.2021 10:00;111
2718040300;Altenahr  ;23.07.2021 10:15;110
2718040300;Altenahr  ;23.07.2021 10:30;110
2718040300;Altenahr  ;23.07.2021 10:45;110
2718040300;Altenahr  ;23.07.2021 11:00;110
2718040300;Altenahr  ;23.07.2021 11:15;109
2718040300;Altenahr  ;23.07.2021 11:30;111
2718040300;Altenahr  ;23.07.2021 11:45;111
2718040300;Altenahr  ;23.07.2021 12:00;113
2718040300;Altenahr  ;23.07.2021 12:15;111
2718040300;Altenahr  ;23.07.2021 12:30;110
2718040300;Altenahr  ;23.07.2021 12:45;109
2718040300;Altenahr  ;23.07.2021 13:00;108
2718040300;Altenahr  ;23.07.2021 13:15;107
2718040300;Altenahr  ;23.07.2021 13:30;107
2718040300;Altenahr  ;23.07.2021 13:45;107
2718040300;Altenahr  ;23.07.2021 14:00;112
2718040300;Altenahr  ;23.07.2021 14:15;112
2718040300;Altenahr  ;23.07.2021 14:30;111
2718040300;Altenahr  ;23.07.2021 14:45;110
2718040300;Altenahr  ;23.07.2021 15:00;-
2718040300;Altenahr  ;23.07.2021 15:15;-
2718040300;Altenahr  ;23.07.2021 15:30;-
2718040300;Altenahr  ;23.07.2021 15:45;-
2718040300;Altenahr  ;23.07.2021 16:00;-
2718040300;Altenahr  ;23.07.2021 16:15;-
2718040300;Altenahr  ;23.07.2021 16:30;-
2718040300;Altenahr  ;23.07.2021 16:45;-
2718040300;Altenahr  ;23.07.2021 17:00;-
2718040300;Altenahr  ;23.07.2021 17:15;-
2718040300;Altenahr  ;23.07.2021 17:30;-
2718040300;Altenahr  ;23.07.2021 17:45;-
2718040300;Altenahr  ;23.07.2021 18:00;-
2718040300;Altenahr  ;23.07.2021 18:15;-
2718040300;Altenahr  ;23.07.2021 18:30;-
2718040300;Altenahr  ;23.07.2021 18:45;-
2718040300;Altenahr  ;23.07.2021 19:00;-
2718040300;Altenahr  ;23.07.2021 19:15;-
2718040300;Altenahr  ;23.07.2021 19:30;-
2718040300;Altenahr  ;23.07.2021 19:45;-
2718040300;Altenahr  ;23.07.2021 20:00;-
2718040300;Altenahr  ;23.07.2021 20:15;-
2718040300;Altenahr  ;23.07.2021 20:30;-
2718040300;Altenahr  ;23.07.2021 20:45;-
2718040300;Altenahr  ;23.07.2021 21:00;-
2718040300;Altenahr  ;23.07.2021 21:15;-
2718040300;Altenahr  ;23.07.2021 21:30;-
2718040300;Altenahr  ;23.07.2021 21:45;-
2718040300;Altenahr  ;23.07.2021 22:00;-
2718040300;Altenahr  ;23.07.2021 22:15;-
2718040300;Altenahr  ;23.07.2021 22:30;-
2718040300;Altenahr  ;23.07.2021 22:45;-
2718040300;Altenahr  ;23.07.2021 23:00;-
2718040300;Altenahr  ;23.07.2021 23:15;-
2718040300;Altenahr  ;23.07.2021 23:30;-
2718040300;Altenahr  ;23.07.2021 23:45;-
